QPF
0.00 0.00 0.01 0.01 0.01 0.01 0.01 0.01 0.01 0.01 0.01 0.01 0.01 0.01 0.00 0.01 0.01 0.01 0.01 0.01 0.01 0.01 0.01 0.02 0.02 0.02 0.01 0.01 0.01 0.01 0.01 0.00 0.00 0.00 0.00 0.01 0.01 0.01 0.00 0.00 0.00 0.00 0.00
0.00 0.00 0.01 0.01 0.01 0.01 0.02 0.02 0.01 0.01 0.01 0.01 0.01 0.00 0.00 0.01 0.01 0.01 0.01 0.01 0.01 0.01 0.02 0.01 0.01 0.01 0.01 0.01 0.00 0.00 0.00 0.00 0.00 0.00 0.00 0.00 0.01 0.01 0.01 0.01 0.01 0.01 0.01
0.00 0.00 0.01 0.01 0.01 0.01 0.02 0.02 0.01 0.01 0.01 0.01 0.01 0.01 0.01 0.01 0.01 0.01 0.01 0.01 0.01 0.01 0.01 0.01 0.01 0.01 0.00 0.00 0.00 0.00 0.00 0.00 0.00 0.00 0.00 0.00 0.00 0.01 0.01 0.01 0.01 0.01 0.01
0.00 0.00 0.01 0.01 0.01 0.01 0.02 0.01 0.01 0.01 0.01 0.00 0.00 0.01 0.01 0.01 0.01 0.01 0.01 0.01 0.01 0.01 0.01 0.01 0.00 0.00 0.00 0.00 0.00 0.00 0.00 0.00 0.00 0.00 0.00 0.00 0.00 0.01 0.01 0.01 0.01 0.01 0.01
0.00 0.00 0.01 0.01 0.01 0.01 0.01 0.01 0.01 0.01 0.01 0.00 0.01 0.01 0.01 0.01 0.01 0.01 0.01 0.01 0.01 0.01 0.00 0.00 0.00 0.00 0.00 0.00 0.00 0.00 0.00 0.00 0.00 0.00 0.00 0.00 0.00 0.01 0.01 0.01 0.01 0.01 0.01
0.00 0.00 0.01 0.01 0.01 0.01 0.01 0.01 0.01 0.01 0.01 0.01 0.01 0.01 0.01 0.01 0.01 0.01 0.01 0.01 0.00 0.00 0.00 0.00 0.00 0.00 0.00 0.00 0.00 0.00 0.00 0.00 0.00 0.00 0.00 0.00 0.00 0.01 0.01 0.01 0.01 0.01 0.01
0.00 0.00 0.01 0.01 0.02 0.02 0.02 0.01 0.01 0.01 0.01 0.01 0.01 0.01 0.02 0.01 0.01 0.01 0.01 0.00 0.00 0.00 0.00 0.00 0.00 0.00 0.00 0.00 0.00 0.00 0.00 0.00 0.00 0.00 0.00 0.00 0.00 0.01 0.01 0.01 0.01 0.01 0.01
0.00 0.00 0.01 0.02 0.02 0.02 0.02 0.01 0.01 0.01 0.01 0.01 0.01 0.02 0.01 0.01 0.01 0.01 0.00 0.00 0.00 0.00 0.00 0.00 0.00 0.00 0.00 0.00 0.00 0.00 0.00 0.00 0.00 0.00 0.00 0.00 0.01 0.01 0.01 0.01 0.01 0.01 0.01
0.00 0.00 0.01 0.01 0.01 0.02 0.01 0.01 0.01 0.01 0.01 0.01 0.01 0.01 0.01 0.01 0.00 0.00 0.00 0.00 0.00 0.00 0.00 0.00 0.00 0.00 0.00 0.00 0.00 0.00 0.00 0.00 0.00 0.00 0.00 0.00 0.01 0.01 0.01 0.01 0.01 0.01 0.01
0.00 0.00 0.01 0.01 0.01 0.01 0.01 0.01 0.01 0.01 0.01 0.01 0.01 0.01 0.00 0.00 0.00 0.00 0.00 0.00 0.00 0.00 0.00 0.00 0.00 0.00 0.00 0.00 0.00 0.00 0.00 0.00 0.00 0.00 0.00 0.00 0.01 0.01 0.01 0.01 0.01 0.01 0.01
0.01 0.01 0.01 0.01 0.01 0.01 0.01 0.01 0.01 0.01 0.01 0.01 0.00 0.00 0.00 0.00 0.00 0.00 0.00 0.00 0.00 0.00 0.00 0.00 0.00 0.00 0.00 0.00 0.00 0.00 0.00 0.00 0.00 0.00 0.00 0.00 0.01 0.01 0.01 0.01 0.01 0.01 0.00
0.01 0.01 0.01 0.01 0.01 0.01 0.01 0.01 0.01 0.01 0.01 0.00 0.00 0.00 0.00 0.00 0.00 0.00 0.00 0.00 0.00 0.00 0.00 0.00 0.00 0.00 0.00 0.00 0.00 0.00 0.00 0.00 0.00 0.00 0.00 0.00 0.01 0.01 0.01 0.01 0.00 0.00 0.00
0.00 0.01 0.00 0.00 0.01 0.01 0.01 0.01 0.00 0.00 0.00 0.00 0.00 0.00 0.00 0.00 0.00 0.00 0.00 0.00 0.00 0.00 0.00 0.00 0.00 0.00 0.00 0.00 0.00 0.00 0.00 0.00 0.00 0.00 0.00 0.00 0.00 0.00 0.00 0.00 0.00 0.00 0.00
0.01 0.00 0.00 0.00 0.01 0.01 0.00 0.00 0.00 0.00 0.00 0.00 0.00 0.00 0.00 0.00 0.00 0.00 0.00 0.00 0.00 0.00 0.00 0.00 0.00 0.00 0.00 0.00 0.00 0.00 0.00 0.00 0.00 0.00 0.00 0.00 0.00 0.00 0.00 0.00 0.00 0.00 0.00
0.01 0.01 0.01 0.01 0.01 0.01 0.00 0.00 0.00 0.00 0.00 0.00 0.00 0.00 0.00 0.00 0.00 0.00 0.00 0.00 0.00 0.00 0.00 0.00 0.00 0.00 0.00 0.00 0.00 0.00 0.00 0.00 0.00 0.00 0.00 0.00 0.00 0.00 0.00 0.00 0.00 0.00 0.00
0.01 0.01 0.01 0.01 0.01 0.01 0.00 0.00 0.00 0.00 0.00 0.00 0.00 0.00 0.00 0.00 0.00 0.00 0.00 0.00 0.00 0.00 0.00 0.00 0.00 0.00 0.00 0.00 0.00 0.00 0.00 0.00 0.00 0.00 0.00 0.00 0.00 0.00 0.00 0.00 0.00 0.00 0.00
0.01 0.01 0.02 0.02 0.02 0.01 0.01 0.00 0.00 0.00 0.00 0.00 0.00 0.00 0.00 0.00 0.00 0.00 0.00 0.00 0.00 0.00 0.00 0.00 0.00 0.00 0.00 0.00 0.00 0.00 0.00 0.00 0.00 0.00 0.00 0.00 0.00 0.00 0.00 0.00 0.00 0.00 0.00
0.01 0.01 0.02 0.02 0.02 0.02 0.01 0.01 0.00 0.00 0.00 0.00 0.00 0.00 0.00 0.00 0.00 0.00 0.00 0.00 0.00 0.00 0.00 0.00 0.00 0.00 0.00 0.00 0.00 0.00 0.00 0.00 0.00 0.00 0.00 0.00 0.00 0.00 0.00 0.00 0.00 0.00 0.00
0.01 0.02 0.02 0.02 0.02 0.01 0.02 0.01 0.01 0.00 0.00 0.00 0.00 0.00 0.00 0.00 0.00 0.00 0.00 0.00 0.00 0.00 0.00 0.00 0.00 0.00 0.00 0.00 0.00 0.00 0.00 0.00 0.00 0.00 0.00 0.00 0.00 0.00 0.00 0.00 0.00 0.00 0.00
0.01 0.02 0.02 0.02 0.03 0.02 0.02 0.02 0.02 0.01 0.01 0.00 0.00 0.00 0.00 0.00 0.00 0.00 0.00 0.00 0.00 0.00 0.00 0.00 0.00 0.00 0.00 0.00 0.00 0.00 0.00 0.00 0.00 0.00 0.00 0.00 0.00 0.00 0.00 0.00 0.00 0.00 0.00
0.01 0.02 0.02 0.02 0.03 0.03 0.02 0.02 0.01 0.01 0.00 0.00 0.00 0.00 0.00 0.00 0.00 0.00 0.00 0.00 0.00 0.00 0.00 0.00 0.00 0.00 0.00 0.00 0.00 0.00 0.00 0.00 0.00 0.00 0.00 0.00 0.00 0.00 0.00 0.00 0.00 0.00 0.00
0.01 0.01 0.02 0.02 0.02 0.02 0.01 0.01 0.01 0.01 0.00 0.00 0.00 0.00 0.00 0.00 0.00 0.00 0.00 0.00 0.00 0.00 0.00 0.00 0.00 0.00 0.00 0.00 0.00 0.00 0.00 0.00 0.00 0.00 0.00 0.00 0.00 0.00 0.00 0.00 0.00 0.00 0.00
0.00 0.01 0.01 0.02 0.02 0.01 0.01 0.02 0.01 0.01 0.01 0.00 0.00 0.00 0.00 0.00 0.00 0.00 0.00 0.00 0.00 0.00 0.00 0.00 0.00 0.00 0.00 0.00 0.00 0.00 0.00 0.00 0.00 0.00 0.00 0.00 0.00 0.00 0.00 0.00 0.00 0.00 0.00
0.00 0.00 0.01 0.01 0.02 0.02 0.01 0.01 0.01 0.01 0.00 0.00 0.00 0.00 0.00 0.00 0.00 0.00 0.00 0.00 0.00 0.00 0.00 0.00 0.00 0.00 0.00 0.00 0.00 0.00 0.00 0.00 0.00 0.00 0.00 0.00 0.00 0.00 0.00 0.00 0.00 0.00 0.00
0.00 0.00 0.00 0.01 0.02 0.02 0.02 0.01 0.00 0.00 0.00 0.00 0.00 0.00 0.00 0.00 0.00 0.00 0.00 0.00 0.00 0.00 0.00 0.00 0.00 0.00 0.00 0.00 0.00 0.00 0.00 0.00 0.00 0.00 0.00 0.00 0.00 0.00 0.00 0.00 0.00 0.00 0.00
0.00 0.00 0.01 0.01 0.02 0.02 0.02 0.01 0.00 0.00 0.00 0.00 0.00 0.00 0.00 0.00 0.00 0.00 0.00 0.00 0.00 0.00 0.00 0.00 0.00 0.00 0.00 0.00 0.00 0.00 0.00 0.00 0.00 0.00 0.00 0.00 0.00 0.00 0.00 0.00 0.00 0.00 0.00
MSLP
1008.38 1008.32 1008.43 1008.73 1009.17 1009.70 1010.23 1010.72 1011.12 1011.43 1011.67 1011.90 1012.16 1012.49 1012.89 1013.35 1013.85 1014.32 1014.74 1015.07 1015.32 1015.50 1015.64 1015.78 1015.94 1016.12 1016.33 1016.54 1016.72 1016.86 1016.95 1017.01 1017.03 1017.05 1017.07 1017.10 1017.13 1017.15 1017.15 1017.11 1017.03 1016.93 1016.83
1007.76 1007.78 1007.97 1008.34 1008.84 1009.43 1010.03 1010.58 1011.06 1011.45 1011.77 1012.07 1012.40 1012.78 1013.22 1013.70 1014.21 1014.68 1015.10 1015.43 1015.68 1015.86 1016.01 1016.15 1016.30 1016.47 1016.65 1016.83 1016.99 1017.12 1017.21 1017.27 1017.31 1017.36 1017.41 1017.46 1017.51 1017.54 1017.54 1017.49 1017.42 1017.31 1017.21
1007.06 1007.18 1007.46 1007.91 1008.49 1009.16 1009.84 1010.48 1011.05 1011.53 1011.94 1012.31 1012.69 1013.10 1013.55 1014.03 1014.52 1014.97 1015.37 1015.69 1015.93 1016.12 1016.28 1016.43 1016.58 1016.75 1016.93 1017.10 1017.25 1017.37 1017.47 1017.54 1017.61 1017.67 1017.75 1017.82 1017.87 1017.90 1017.89 1017.84 1017.76 1017.65 1017.55
1006.43 1006.65 1007.02 1007.55 1008.21 1008.95 1009.71 1010.43 1011.08 1011.64 1012.12 1012.55 1012.96 1013.39 1013.83 1014.28 1014.73 1015.15 1015.52 1015.82 1016.07 1016.27 1016.45 1016.63 1016.81 1016.99 1017.18 1017.35 1017.51 1017.64 1017.75 1017.84 1017.92 1018.00 1018.08 1018.15 1018.20 1018.21 1018.19 1018.12 1018.03 1017.93 1017.84
1005.99 1006.30 1006.75 1007.35 1008.06 1008.85 1009.65 1010.43 1011.13 1011.74 1012.27 1012.74 1013.17 1013.59 1014.01 1014.43 1014.84 1015.22 1015.57 1015.87 1016.13 1016.36 1016.57 1016.79 1017.01 1017.22 1017.43 1017.63 1017.80 1017.95 1018.07 1018.17 1018.26 1018.34 1018.41 1018.46 1018.48 1018.47 1018.41 1018.33 1018.23 1018.14 1018.06
1005.81 1006.20 1006.71 1007.34 1008.07 1008.87 1009.68 1010.45 1011.17 1011.80 1012.35 1012.84 1013.28 1013.70 1014.10 1014.50 1014.88 1015.24 1015.57 1015.88 1016.16 1016.43 1016.70 1016.96 1017.22 1017.48 1017.72 1017.94 1018.13 1018.29 1018.42 1018.53 1018.61 1018.68 1018.72 1018.74 1018.72 1018.67 1018.58 1018.48 1018.38 1018.30 1018.24
1005.92 1006.35 1006.89 1007.52 1008.23 1008.98 1009.74 1010.48 1011.17 1011.79 1012.35 1012.84 1013.30 1013.73 1014.13 1014.53 1014.90 1015.26 1015.60 1015.93 1016.25 1016.56 1016.87 1017.18 1017.49 1017.79 1018.06 1018.29 1018.50 1018.66 1018.79 1018.89 1018.96 1019.00 1019.01 1018.99 1018.92 1018.83 1018.72 1018.61 1018.51 1018.44 1018.42
1006.22 1006.68 1007.21 1007.81 1008.46 1009.14 1009.82 1010.49 1011.12 1011.72 1012.27 1012.79 1013.27 1013.73 1014.17 1014.58 1014.98 1015.36 1015.72 1016.07 1016.42 1016.77 1017.12 1017.47 1017.81 1018.13 1018.42 1018.67 1018.87 1019.03 1019.15 1019.24 1019.28 1019.30 1019.27 1019.21 1019.11 1018.99 1018.86 1018.74 1018.65 1018.61 1018.63
1006.58 1007.06 1007.58 1008.13 1008.70 1009.28 1009.87 1010.46 1011.04 1011.61 1012.17 1012.72 1013.25 1013.76 1014.25 1014.72 1015.15 1015.56 1015.95 1016.33 1016.70 1017.07 1017.44 1017.81 1018.16 1018.48 1018.77 1019.02 1019.21 1019.36 1019.47 1019.54 1019.56 1019.55 1019.50 1019.41 1019.29 1019.15 1019.02 1018.91 1018.85 1018.84 1018.89
1006.88 1007.38 1007.88 1008.39 1008.88 1009.38 1009.88 1010.41 1010.95 1011.51 1012.10 1012.70 1013.29 1013.87 1014.43 1014.94 1015.42 1015.86 1016.27 1016.66 1017.04 1017.42 1017.79 1018.15 1018.49 1018.81 1019.08 1019.31 1019.50 1019.63 1019.73 1019.78 1019.79 1019.76 1019.70 1019.60 1019.48 1019.36 1019.24 1019.15 1019.12 1019.14 1019.22
1007.01 1007.54 1008.05 1008.52 1008.97 1009.41 1009.87 1010.35 1010.88 1011.46 1012.08 1012.74 1013.41 1014.06 1014.68 1015.24 1015.76 1016.21 1016.63 1017.02 1017.38 1017.75 1018.10 1018.44 1018.77 1019.07 1019.32 1019.54 1019.71 1019.83 1019.91 1019.95 1019.96 1019.93 1019.87 1019.79 1019.69 1019.59 1019.51 1019.45 1019.45 1019.50 1019.60
1006.95 1007.52 1008.05 1008.53 1008.97 1009.39 1009.83 1010.31 1010.86 1011.47 1012.15 1012.87 1013.59 1014.30 1014.96 1015.56 1016.09 1016.55 1016.95 1017.32 1017.67 1018.00 1018.34 1018.66 1018.96 1019.24 1019.49 1019.69 1019.84 1019.96 1020.04 1020.08 1020.09 1020.07 1020.03 1019.98 1019.91 1019.85 1019.81 1019.79 1019.81 1019.88 1019.99
1006.71 1007.34 1007.91 1008.42 1008.89 1009.34 1009.80 1010.31 1010.90 1011.56 1012.28 1013.04 1013.81 1014.55 1015.23 1015.83 1016.35 1016.79 1017.18 1017.52 1017.85 1018.17 1018.48 1018.79 1019.08 1019.35 1019.59 1019.79 1019.94 1020.05 1020.13 1020.17 1020.19 1020.19 1020.18 1020.16 1020.13 1020.11 1020.11 1020.13 1020.18 1020.26 1020.36
1006.37 1007.05 1007.67 1008.24 1008.76 1009.26 1009.78 1010.35 1010.99 1011.69 1012.44 1013.23 1014.00 1014.74 1015.40 1015.99 1016.48 1016.91 1017.27 1017.60 1017.92 1018.23 1018.54 1018.85 1019.15 1019.43 1019.67 1019.87 1020.03 1020.15 1020.22 1020.27 1020.30 1020.31 1020.32 1020.33 1020.34 1020.36 1020.40 1020.46 1020.52 1020.60 1020.69
1005.99 1006.71 1007.39 1008.02 1008.61 1009.18 1009.78 1010.41 1011.09 1011.82 1012.59 1013.37 1014.12 1014.83 1015.46 1016.00 1016.47 1016.88 1017.24 1017.57 1017.90 1018.23 1018.56 1018.89 1019.21 1019.50 1019.76 1019.97 1020.14 1020.26 1020.34 1020.39 1020.42 1020.44 1020.46 1020.49 1020.53 1020.59 1020.66 1020.73 1020.82 1020.90 1020.96
1005.62 1006.36 1007.08 1007.76 1008.43 1009.08 1009.75 1010.44 1011.17 1011.92 1012.68 1013.43 1014.13 1014.78 1015.37 1015.88 1016.33 1016.73 1017.11 1017.47 1017.83 1018.20 1018.57 1018.94 1019.29 1019.61 1019.88 1020.11 1020.29 1020.42 1020.50 1020.55 1020.57 1020.59 1020.61 1020.65 1020.70 1020.78 1020.87 1020.96 1021.06 1021.13 1021.19
1005.26 1006.00 1006.73 1007.46 1008.19 1008.92 1009.66 1010.41 1011.18 1011.93 1012.67 1013.37 1014.03 1014.62 1015.16 1015.65 1016.10 1016.52 1016.94 1017.35 1017.77 1018.19 1018.61 1019.01 1019.39 1019.73 1020.03 1020.27 1020.46 1020.59 1020.67 1020.72 1020.74 1020.76 1020.77 1020.81 1020.86 1020.94 1021.04 1021.15 1021.25 1021.33 1021.39
1004.87 1005.58 1006.32 1007.08 1007.87 1008.67 1009.48 1010.28 1011.07 1011.83 1012.55 1013.21 1013.81 1014.36 1014.87 1015.35 1015.82 1016.28 1016.75 1017.23 1017.71 1018.19 1018.66 1019.09 1019.49 1019.85 1020.16 1020.41 1020.61 1020.75 1020.85 1020.90 1020.92 1020.94 1020.95 1020.97 1021.02 1021.10 1021.19 1021.31 1021.41 1021.50 1021.56
1004.40 1005.07 1005.80 1006.59 1007.42 1008.29 1009.16 1010.02 1010.85 1011.62 1012.31 1012.94 1013.51 1014.03 1014.52 1015.02 1015.52 1016.04 1016.58 1017.12 1017.66 1018.19 1018.68 1019.13 1019.54 1019.90 1020.22 1020.48 1020.70 1020.87 1020.98 1021.06 1021.10 1021.12 1021.13 1021.15 1021.19 1021.25 1021.34 1021.44 1021.55 1021.64 1021.71
1003.80 1004.43 1005.15 1005.96 1006.84 1007.77 1008.71 1009.63 1010.50 1011.28 1011.97 1012.59 1013.13 1013.64 1014.15 1014.67 1015.21 1015.79 1016.39 1016.99 1017.57 1018.12 1018.63 1019.08 1019.48 1019.84 1020.15 1020.44 1020.68 1020.89 1021.06 1021.18 1021.25 1021.29 1021.31 1021.33 1021.35 1021.40 1021.47 1021.56 1021.66 1021.75 1021.81
1003.06 1003.66 1004.38 1005.21 1006.15 1007.14 1008.15 1009.12 1010.03 1010.85 1011.55 1012.16 1012.71 1013.23 1013.74 1014.29 1014.88 1015.51 1016.15 1016.79 1017.39 1017.95 1018.44 1018.88 1019.26 1019.61 1019.94 1020.25 1020.55 1020.81 1021.05 1021.23 1021.37 1021.45 1021.49 1021.51 1021.52 1021.54 1021.59 1021.65 1021.72 1021.79 1021.84
1002.20 1002.79 1003.51 1004.38 1005.36 1006.41 1007.49 1008.53 1009.48 1010.33 1011.06 1011.68 1012.23 1012.76 1013.30 1013.87 1014.49 1015.15 1015.82 1016.47 1017.08 1017.62 1018.09 1018.51 1018.88 1019.23 1019.57 1019.93 1020.29 1020.64 1020.96 1021.23 1021.43 1021.57 1021.64 1021.66 1021.66 1021.66 1021.66 1021.68 1021.71 1021.75 1021.79
1001.28 1001.87 1002.61 1003.51 1004.54 1005.64 1006.78 1007.87 1008.87 1009.75 1010.50 1011.14 1011.70 1012.24 1012.79 1013.37 1014.01 1014.68 1015.36 1016.01 1016.61 1017.13 1017.59 1017.98 1018.35 1018.71 1019.09 1019.50 1019.94 1020.37 1020.79 1021.15 1021.44 1021.63 1021.73 1021.76 1021.75 1021.71 1021.66 1021.63 1021.62 1021.61 1021.61
1000.38 1000.98 1001.73 1002.66 1003.72 1004.87 1006.04 1007.17 1008.21 1009.12 1009.89 1010.54 1011.11 1011.65 1012.20 1012.79 1013.43 1014.09 1014.77 1015.41 1016.00 1016.51 1016.96 1017.35 1017.73 1018.11 1018.54 1019.01 1019.53 1020.05 1020.56 1021.01 1021.36 1021.60 1021.73 1021.77 1021.73 1021.66 1021.57 1021.49 1021.42 1021.36 1021.32
999.53 1000.14 1000.91 1001.84 1002.92 1004.09 1005.29 1006.45 1007.51 1008.44 1009.22 1009.88 1010.45 1010.99 1011.54 1012.12 1012.75 1013.41 1014.08 1014.72 1015.31 1015.82 1016.27 1016.68 1017.08 1017.51 1017.98 1018.51 1019.09 1019.69 1020.26 1020.77 1021.18 1021.46 1021.61 1021.64 1021.59 1021.49 1021.36 1021.23 1021.12 1021.02 1020.93
998.77 999.38 1000.14 1001.06 1002.14 1003.31 1004.51 1005.68 1006.76 1007.70 1008.49 1009.15 1009.73 1010.27 1010.81 1011.39 1012.02 1012.68 1013.35 1013.99 1014.59 1015.12 1015.59 1016.03 1016.46 1016.92 1017.44 1018.01 1018.63 1019.27 1019.88 1020.43 1020.86 1021.16 1021.32 1021.36 1021.30 1021.18 1021.03 1020.87 1020.73 1020.60 1020.48
Thickness
5773 5776 5776 5774 5772 5770 5769 5767 5766 5764 5763 5762 5760 5759 5758 5757 5755 5754 5752 5751 5749 5747 5746 5744 5742 5740 5738 5736 5735 5733 5731 5729 5727 5726 5724 5723 5721 5720 5718 5717 5715 5715 5713
5780 5776 5774 5772 5770 5769 5767 5765 5763 5762 5760 5759 5758 5756 5755 5753 5752 5750 5749 5747 5746 5744 5742 5740 5738 5736 5734 5733 5731 5729 5727 5725 5723 5721 5720 5719 5717 5716 5714 5713 5712 5710 5709
5777 5774 5772 5770 5768 5766 5764 5762 5760 5759 5757 5756 5755 5753 5751 5750 5748 5747 5746 5744 5742 5740 5738 5736 5734 5732 5730 5729 5727 5725 5723 5721 5719 5717 5715 5714 5713 5712 5710 5708 5707 5706 5704
5773 5771 5769 5767 5766 5764 5761 5760 5757 5755 5754 5753 5751 5750 5748 5747 5745 5744 5742 5740 5739 5736 5734 5732 5730 5728 5726 5725 5724 5722 5719 5716 5714 5712 5711 5710 5709 5707 5706 5704 5702 5701 5699
5768 5766 5765 5764 5762 5760 5758 5756 5754 5752 5751 5749 5748 5746 5745 5743 5742 5740 5739 5737 5735 5732 5730 5728 5726 5724 5723 5721 5720 5718 5715 5713 5710 5708 5707 5706 5705 5703 5701 5699 5698 5696 5694
5763 5762 5760 5759 5758 5756 5754 5752 5750 5749 5747 5746 5744 5743 5741 5740 5738 5737 5735 5733 5731 5728 5726 5724 5722 5720 5719 5717 5716 5714 5711 5708 5706 5704 5703 5701 5700 5699 5697 5695 5693 5691 5688
5757 5756 5755 5754 5753 5752 5750 5748 5746 5745 5743 5742 5740 5739 5738 5736 5734 5732 5730 5728 5726 5724 5722 5720 5718 5716 5715 5713 5712 5709 5707 5704 5702 5700 5698 5697 5696 5694 5692 5690 5688 5685 5683
5753 5751 5750 5749 5748 5747 5746 5744 5742 5741 5740 5738 5736 5735 5733 5732 5730 5728 5726 5724 5722 5720 5718 5716 5714 5712 5711 5709 5707 5705 5702 5700 5698 5696 5694 5692 5691 5690 5688 5685 5683 5680 5677
5745 5744 5744 5743 5742 5741 5740 5739 5738 5737 5735 5734 5732 5731 5729 5727 5726 5724 5722 5720 5718 5716 5714 5712 5710 5709 5707 5705 5703 5701 5698 5696 5694 5692 5690 5688 5687 5685 5682 5680 5677 5674 5671
5737 5737 5738 5738 5737 5736 5735 5734 5733 5732 5731 5729 5728 5726 5724 5723 5721 5719 5718 5716 5714 5712 5710 5708 5706 5705 5703 5701 5699 5696 5694 5692 5690 5688 5686 5684 5683 5680 5677 5674 5671 5668 5664
5728 5730 5731 5732 5731 5731 5730 5729 5728 5727 5726 5724 5723 5721 5720 5718 5716 5714 5713 5711 5709 5707 5706 5704 5702 5701 5698 5696 5694 5692 5690 5688 5686 5684 5682 5680 5678 5676 5672 5669 5665 5662 5658
5722 5724 5726 5726 5726 5725 5724 5723 5722 5721 5720 5719 5717 5716 5715 5713 5711 5709 5708 5706 5704 5703 5701 5700 5698 5696 5694 5692 5690 5688 5686 5683 5681 5679 5677 5675 5673 5670 5667 5663 5659 5656 5652
5721 5720 5720 5720 5720 5719 5719 5718 5717 5716 5715 5713 5712 5711 5709 5708 5706 5704 5703 5701 5700 5698 5697 5695 5694 5692 5690 5688 5686 5683 5681 5679 5677 5674 5672 5670 5668 5665 5661 5657 5654 5650 5646
5714 5714 5715 5715 5715 5714 5714 5713 5712 5711 5710 5709 5707 5706 5705 5703 5701 5699 5698 5696 5695 5694 5692 5691 5689 5687 5685 5683 5681 5679 5677 5674 5672 5670 5667 5665 5662 5659 5656 5652 5648 5644 5640
5709 5709 5710 5710 5710 5709 5708 5707 5707 5707 5706 5704 5703 5702 5701 5699 5697 5695 5693 5692 5691 5689 5688 5686 5684 5683 5681 5679 5677 5674 5672 5669 5667 5665 5662 5659 5657 5654 5650 5646 5642 5638 5634
5705 5706 5706 5705 5705 5704 5704 5703 5703 5702 5701 5700 5699 5698 5697 5695 5693 5691 5689 5687 5686 5685 5683 5682 5680 5678 5677 5674 5672 5670 5667 5665 5662 5659 5657 5654 5651 5648 5644 5641 5636 5632 5628
5703 5703 5702 5702 5701 5700 5700 5699 5699 5698 5697 5696 5695 5694 5693 5692 5690 5688 5685 5683 5682 5681 5679 5677 5675 5674 5672 5670 5667 5665 5662 5660 5657 5654 5652 5649 5645 5642 5638 5634 5630 5626 5622
5700 5699 5699 5698 5697 5696 5696 5695 5695 5694 5694 5693 5692 5690 5689 5688 5686 5684 5682 5680 5679 5677 5675 5673 5671 5668 5666 5664 5662 5659 5657 5655 5652 5649 5646 5643 5639 5635 5632 5628 5624 5619 5615
5697 5697 5696 5696 5695 5694 5693 5692 5691 5691 5690 5690 5689 5687 5686 5684 5683 5681 5679 5677 5675 5673 5671 5669 5666 5665 5661 5659 5657 5654 5652 5649 5647 5644 5641 5637 5634 5630 5626 5622 5617 5613 5608
5693 5693 5693 5693 5691 5689 5688 5686 5686 5686 5687 5687 5686 5685 5683 5681 5680 5678 5676 5673 5672 5669 5667 5665 5662 5660 5657 5655 5652 5648 5645 5644 5641 5639 5636 5632 5628 5624 5620 5616 5611 5606 5602
5687 5689 5690 5689 5688 5686 5685 5685 5684 5684 5685 5684 5683 5682 5681 5679 5677 5675 5673 5671 5669 5667 5665 5662 5658 5655 5652 5649 5644 5640 5638 5637 5635 5633 5631 5627 5623 5619 5615 5610 5606 5601 5596
5685 5687 5688 5688 5688 5687 5688 5687 5686 5683 5680 5679 5679 5679 5678 5677 5675 5673 5671 5669 5666 5664 5661 5658 5656 5651 5648 5645 5640 5634 5630 5628 5629 5628 5625 5622 5618 5614 5609 5605 5600 5595 5590
5684 5687 5689 5689 5688 5687 5686 5681 5677 5673 5672 5672 5675 5676 5676 5675 5673 5671 5669 5667 5664 5662 5659 5656 5653 5649 5644 5640 5639 5633 5625 5623 5622 5621 5619 5616 5613 5608 5604 5600 5595 5590 5585
5684 5688 5689 5689 5688 5686 5683 5680 5678 5677 5677 5680 5678 5675 5673 5672 5670 5669 5667 5665 5662 5660 5657 5654 5651 5648 5643 5637 5634 5632 5628 5624 5617 5614 5612 5610 5607 5603 5599 5595 5590 5585 5580
5683 5685 5687 5687 5685 5684 5682 5681 5679 5678 5678 5675 5672 5670 5669 5668 5668 5666 5665 5663 5660 5658 5655 5652 5648 5645 5642 5638 5632 5627 5623 5618 5614 5610 5606 5603 5600 5598 5595 5591 5586 5581 5575
5678 5681 5683 5683 5683 5682 5681 5680 5679 5677 5674 5671 5669 5668 5667 5666 5665 5664 5663 5661 5659 5656 5653 5650 5647 5643 5640 5636 5632 5627 5622 5617 5611 5606 5601 5596 5593 5592 5589 5585 5581 5576 5571